Weather in Herzliya

Israel     32°09′52″N   34°50′31″E
temp.,
°C
wind,
m/s
gust,
m/s
humid.,
%
clouds,
%
prec.,
mm/h
press.,
hPa
HPBL,
m
28 february, sun
sun2823:00+17n811720 0.0 1015492
02:00+16n68730 0.0 1015566
05:00+16n68740 0.0 1015569
08:00+17nnw55720 0.0 1016779
11:00+18nw44630 0.0 1017913
14:00+17wnw66670 0.0 10161009
17:00+17wnw45690 0.0 1017813
20:00+16wnw44684 0.0 1018820
1 march, mon
mon123:00+16wsw446461 0.1 1019905
02:00+16wsw456281 0.1 10181021
05:00+16wsw4563100 0.1 1018870
08:00+16sw5664100 0.4 10191029
11:00+17wsw776646 0.3 10201041
14:00+17wsw676740 0.3 1018919
17:00+16wsw67741 0.1 1018797
20:00+16sw56722 0.2 1019671
2 march, tue
tue223:00+16s56720 0.0 1019642
02:00+15ssw567519 0.1 1019687
05:00+15sw567469 0.1 1019802
08:00+16sw777073 0.4 10191231
11:00+16sw786658 0.1 10201313
14:00+16sw887134 0.1 1018937
17:00+15sw67750 0.0 1018710
20:00+16ssw677610 0.4 1019642
3 march, wed
wed323:00+15sw45750 0.9 1019698
02:00+15sw677016 1.3 1019908
05:00+15wsw677062 0.2 1019903
08:00+15sw666262 0.3 10191209
11:00+15wsw456669 0.2 1019922
14:00+16wsw776338 0.4 10171224
17:00+15wsw77671 0.5 10171052
20:00+14w345928 1.1 1018902
4 march, thu
thu423:00+14w336199 1.6 1018564
02:00+13wsw236079 2.1 1017744
05:00+14w346230 0.4 1017998
08:00+14nw146230 0.9 1019835
11:00+16nnw455862 0.3 10201288
14:00+16nw556336 0.3 10191086
17:00+16nw45665 0.0 1020957
20:00+16wnw34636 0.0 1022906